Temperature
4 3 3 3 3 4 4 4 4 4 4 4 4 4 5 5 5 5 5 5 6 6 6 7 7 7 7 8 8 8 8 8 8 8 8 8 8 9 9 9 9 9 9 9
3 3 3 4 4 4 4 4 3 4 4 4 3 4 4 4 4 5 5 5 5 6 6 7 7 7 7 7 7 7 8 8 8 8 8 8 8 8 8 8 9 9 9 9
3 3 4 4 3 4 4 3 3 3 3 4 3 4 4 4 5 5 5 5 5 5 5 6 6 6 6 7 7 7 7 8 8 8 7 8 7 7 8 8 8 8 8 9
2 2 3 3 3 3 4 4 4 3 3 3 3 4 4 4 4 4 4 4 4 5 5 5 5 6 6 6 6 7 7 7 7 7 7 7 7 7 7 8 8 8 8 8
2 2 3 3 3 3 3 3 3 3 2 2 3 3 4 3 4 4 4 4 4 5 5 5 5 5 5 5 6 6 6 7 7 7 7 7 7 7 7 7 7 7 7 8
2 2 2 3 3 3 3 3 3 2 2 2 3 3 4 3 3 3 3 4 4 4 4 4 5 5 5 5 5 6 6 6 6 6 6 6 6 7 7 7 7 7 7 7
2 2 2 2 3 3 2 2 2 2 2 3 3 3 3 3 3 3 3 3 4 4 4 4 4 4 5 5 5 5 5 6 6 6 6 6 6 6 6 6 6 6 6 7
2 2 2 2 2 2 1 2 2 3 3 2 2 2 3 3 3 3 3 3 3 3 3 4 4 4 4 4 5 5 5 5 5 5 5 5 5 5 5 6 6 6 6 6
1 2 2 2 2 2 1 1 1 1 0 1 2 2 2 2 2 2 2 3 3 3 3 3 3 4 4 4 4 4 4 4 5 5 5 5 5 5 5 5 5 5 5 6
1 1 1 1 2 1 1 0 -0 0 2 2 2 2 3 2 2 1 1 2 2 2 3 3 3 3 3 4 4 4 4 4 4 4 4 4 4 4 5 5 5 5 5 5
0 0 1 1 0 0 1 0 -0 -1 0 1 2 3 3 2 2 1 1 2 2 2 2 3 3 3 3 3 3 3 4 4 4 4 4 4 4 4 4 4 4 5 5 5
-1 -1 -1 -0 -1 -0 -0 -0 -1 1 0 -1 -0 2 2 1 1 1 1 2 2 2 2 2 3 3 3 3 3 3 3 3 3 3 3 3 3 3 4 4 4 4 4 4
-1 -1 1 1 0 -1 -1 -1 -2 -2 -1 -2 -0 2 2 1 1 1 1 1 1 2 2 2 2 2 2 3 3 3 3 3 3 3 3 3 3 3 3 3 3 3 3 4
-1 -2 0 2 2 -1 -2 -2 -2 -2 -1 -1 -1 1 1 1 0 0 1 1 1 1 1 1 2 2 2 2 2 2 2 2 2 2 2 2 2 2 2 3 3 3 3 3
-1 -1 -2 -2 -1 -1 -1 -2 -2 -2 -2 -1 -0 -0 1 0 -0 -0 0 1 1 1 1 1 1 1 1 2 2 2 2 2 2 2 2 2 2 2 2 2 2 2 2 2
-3 -2 -2 -2 -1 -2 -2 -1 -2 -2 -2 -2 -1 -0 -0 -0 -0 -0 0 -0 -0 0 0 1 1 1 1 1 1 1 1 1 1 1 1 1 1 1 2 2 2 2 2 2
-4 -3 -2 -1 -2 -1 -1 -1 -2 -2 -3 -2 -1 -0 -1 -1 -1 -1 -0 -0 -0 -0 -0 0 0 0 1 1 1 1 1 1 1 1 1 1 1 1 1 1 1 1 1 1
-4 -4 -4 -3 -2 0 1 -2 -2 -2 -2 -3 -2 -2 -1 -1 -0 0 0 -0 -0 -0 -0 -0 0 0 0 0 0 1 0 0 0 0 0 0 1 0 0 0 0 0 0 0
-4 -4 -4 -3 -3 -2 -1 -2 -3 -2 -2 -2 -3 -2 -2 -1 -1 -0 0 0 -0 -0 -0 -0 -0 -0 -0 -0 -0 -0 -0 -0 -0 -0 -0 -0 -0 -0 -0 -0 -0 -0 -0 -0
-5 -5 -4 -4 -2 -0 1 -1 -2 -2 -1 -2 -3 -2 -2 -2 -2 -1 0 -0 -0 -0 -1 -1 -1 -0 -0 -0 -1 -1 -1 -1 -1 -1 -1 -1 -1 -1 -1 -1 -1 -1 -1 -1
-4 -5 -4 -4 -3 -2 -2 -2 -2 -1 0 -1 -1 -1 -2 -2 -2 -1 -0 -1 -1 -1 -1 -1 -1 -1 -1 -1 -1 -1 -1 -1 -1 -1 -1 -1 -1 -1 -1 -1 -1 -1 -1 -1
-4 -5 -5 -5 -3 -1 -2 -3 -2 -1 -0 -0 -1 -1 -1 -1 -1 -1 -1 -1 -1 -1 -1 -1 -1 -1 -1 -2 -1 -1 -2 -2 -2 -2 -2 -2 -2 -2 -2 -2 -2 -2 -2 -1
-5 -4 -4 -4 -2 -2 -2 -1 -1 -1 -1 -1 -1 -1 -1 -1 -1 -1 -1 -1 -1 -1 -2 -2 -2 -2 -2 -2 -2 -2 -2 -2 -2 -2 -2 -2 -2 -2 -2 -2 -2 -2 -2 -2
-6 -6 -6 -5 -4 -3 -2 -1 -1 -1 -1 -1 -1 -1 -1 -1 -1 -2 -2 -2 -2 -2 -2 -2 -2 -2 -2 -2 -2 -2 -3 -3 -3 -2 -3 -3 -3 -3 -3 -3 -3 -3 -2 -2
-4 -7 -6 -6 -5 -3 -1 -0 -0 -1 -1 -1 -1 -1 -1 -2 -2 -2 -2 -2 -2 -2 -2 -2 -2 -3 -3 -2 -3 -3 -3 -3 -3 -3 -3 -3 -3 -3 -3 -3 -3 -3 -3 -3
-6 -6 -5 -3 -2 -3 -1 -0 -0 -1 -1 -1 -1 -1 -1 -2 -2 -2 -2 -2 -2 -2 -2 -3 -3 -3 -3 -3 -3 -3 -3 -3 -3 -3 -3 -4 -4 -4 -4 -4 -4 -4 -3 -3
Wind_Speed
4 4 0 3 3 2 2 2 6 7 6 4 7 11 12 8 5 6 6 6 6 7 6 4 3 3 3 2 2 3 3 3 2 2 2 2 2 2 1 0 1 1 2 2
4 1 5 2 1 1 2 4 6 7 5 4 7 11 10 7 6 6 6 7 7 7 6 5 4 3 3 3 3 4 4 3 3 3 2 2 2 2 1 1 1 2 2 2
4 2 2 1 1 1 3 4 5 6 7 4 6 8 6 5 4 4 5 5 5 5 5 5 5 4 3 4 4 4 4 3 3 2 2 1 0 0 0 1 2 1 1 1
1 2 0 1 1 1 4 3 5 5 4 4 2 6 7 5 6 6 6 6 5 5 5 4 5 5 4 5 4 4 4 3 2 3 3 3 3 2 2 2 2 1 1 1
1 1 0 1 3 2 4 3 4 4 2 4 3 3 8 3 6 7 7 7 6 5 4 5 5 5 4 4 4 4 3 2 2 2 3 3 3 2 1 1 1 1 1 1
2 1 1 2 2 2 3 2 2 1 1 3 4 3 7 4 5 6 6 7 6 5 5 5 5 4 3 3 3 3 2 1 1 2 2 3 3 2 1 1 1 1 1 1
3 2 2 1 1 2 3 3 4 4 2 5 2 3 8 7 5 5 7 7 5 4 4 5 5 4 4 4 4 3 1 1 1 1 2 2 2 2 2 2 2 1 1 1
0 3 2 1 1 1 0 3 3 3 4 5 2 6 7 5 4 5 5 5 6 5 5 5 5 4 4 4 3 2 2 2 1 1 2 2 2 1 2 2 1 1 1 1
3 3 1 0 0 3 2 2 2 2 1 3 6 6 7 3 5 6 6 6 7 6 6 6 5 4 4 3 2 2 2 2 1 1 1 2 2 2 1 1 0 0 0 0
4 2 3 2 1 2 2 4 3 3 1 4 6 6 5 7 8 8 7 7 7 7 7 6 4 4 3 2 2 1 1 1 1 1 0 1 1 1 1 1 0 0 1 0
2 2 3 1 2 3 2 2 3 3 2 3 5 7 3 4 5 7 7 7 7 7 7 6 4 3 2 1 1 1 1 1 1 1 1 1 1 1 1 1 1 1 1 0
3 3 2 4 2 1 3 4 5 3 3 3 3 8 5 4 5 5 6 7 7 7 6 5 3 2 1 1 1 1 1 1 1 1 1 1 1 1 1 1 1 1 1 1
4 4 1 4 2 1 0 2 3 3 2 4 4 8 3 5 7 6 6 7 7 7 6 5 4 3 2 2 2 2 2 1 2 1 1 1 1 1 1 1 1 1 1 2
4 3 5 6 5 3 3 3 4 5 4 5 8 11 12 11 10 10 8 7 5 5 5 5 4 4 3 3 2 2 2 2 2 2 2 2 2 1 1 1 1 1 1 2
3 2 3 5 5 3 5 6 6 8 8 8 9 9 14 11 9 8 7 6 6 7 6 6 5 4 3 3 3 3 3 2 2 2 2 2 2 2 2 2 2 2 2 2
2 2 0 3 2 3 6 8 8 9 7 9 10 13 11 9 6 5 6 5 6 7 7 7 7 5 4 3 3 3 3 3 2 1 1 2 2 2 2 2 2 2 2 2
2 3 1 3 4 4 7 7 8 6 6 7 9 10 6 6 7 6 5 5 6 6 6 6 7 5 5 4 3 2 2 2 2 1 1 2 2 2 2 2 2 2 2 2
4 3 2 1 4 4 6 1 5 6 7 8 8 8 7 8 7 5 5 5 5 5 6 6 6 5 5 4 3 3 2 1 1 1 1 2 2 2 2 2 2 1 1 1
3 5 3 1 2 8 7 3 4 4 7 6 9 9 7 6 5 5 4 3 4 5 6 5 5 4 4 3 2 2 2 2 1 1 1 1 1 1 1 1 1 1 1 1
3 3 4 3 2 6 6 1 2 2 6 4 5 6 5 3 4 6 4 4 4 5 4 4 4 3 3 3 2 1 2 2 2 2 2 1 0 1 0 0 0 1 1 1
2 2 3 4 5 8 6 2 3 2 6 3 3 4 3 4 5 6 6 5 4 5 5 4 4 3 3 3 2 1 1 2 2 2 1 1 1 0 0 1 1 1 1 2
7 6 6 5 4 8 3 5 6 7 3 2 3 4 5 5 6 5 5 5 5 5 5 4 3 4 3 2 1 1 2 2 2 1 1 1 0 0 0 1 1 1 2 2
7 7 6 9 8 4 4 6 5 3 4 4 4 5 4 5 5 5 5 5 5 5 5 4 2 4 4 2 1 1 2 2 1 1 1 1 1 1 1 1 1 1 1 1
4 3 4 5 9 7 7 7 6 5 5 5 5 5 4 4 5 4 4 5 4 4 4 3 3 3 4 4 2 1 1 1 2 1 1 1 1 1 1 1 1 1 1 1
5 6 4 6 7 6 5 6 7 5 5 5 4 3 4 3 4 4 4 4 4 4 4 3 2 3 4 3 2 2 1 1 1 1 1 1 1 1 0 0 0 1 1 1
6 7 7 7 6 5 5 4 3 3 4 5 4 4 3 3 4 3 3 3 3 3 3 3 3 3 3 2 2 2 1 1 1 0 0 0 0 0 0 0 1 2 1 1
Wind_Direction
27 62 347 247 211 194 189 235 273 278 299 304 273 278 287 291 281 271 270 269 271 269 276 289 296 294 288 282 282 271 269 261 209 198 191 218 249 238 214 265 264 198 185 176
53 310 264 255 184 177 248 266 278 291 300 302 291 286 283 278 262 260 268 274 272 280 295 305 310 307 304 288 277 269 261 249 218 213 203 216 223 229 220 227 259 222 197 178
154 252 280 147 74 255 281 246 259 277 311 312 307 300 287 287 285 287 284 277 279 271 280 298 307 309 313 304 291 278 266 243 218 209 167 128 67 356 242 269 260 239 219 191
189 296 275 118 271 221 268 261 257 277 315 307 352 302 290 281 290 295 299 299 291 282 277 287 299 309 303 290 289 284 265 233 210 190 176 181 202 226 247 255 255 239 206 198
261 299 112 233 257 221 243 284 266 267 250 291 281 261 287 309 293 290 291 286 285 287 285 288 286 284 290 289 286 287 265 218 197 194 188 195 210 241 236 246 248 233 234 190
247 264 204 237 267 227 269 324 338 5 89 282 253 224 286 271 267 285 290 291 284 293 293 290 287 292 302 311 313 310 274 235 214 203 194 213 213 224 216 243 242 254 258 260
331 303 320 282 349 358 32 58 11 355 344 259 234 226 257 259 263 269 283 292 293 285 290 296 300 303 310 314 314 308 301 259 258 233 215 220 227 227 221 230 233 245 268 283
85 292 297 351 177 197 204 139 155 227 256 288 292 241 256 266 281 285 291 301 313 307 301 291 281 278 282 288 297 313 309 282 252 243 242 225 215 235 258 247 232 235 259 281
173 253 320 295 272 140 128 157 171 146 297 285 274 281 294 297 322 327 329 331 321 313 304 295 284 274 271 274 286 297 296 298 269 250 237 223 224 232 249 266 327 229 294 324
157 241 291 305 88 32 133 145 106 124 265 288 291 280 279 311 318 324 324 319 313 314 310 297 285 281 277 268 278 309 298 297 293 294 322 286 270 245 188 171 121 317 307 14
148 166 307 6 173 194 131 122 130 141 175 202 287 283 254 281 301 303 298 300 301 303 302 299 284 280 282 283 277 319 349 349 328 334 338 325 290 89 88 75 34 350 322 24
150 135 262 259 246 208 176 177 158 165 237 202 229 275 292 296 304 304 301 309 312 311 312 311 311 308 310 309 320 333 353 334 326 341 345 340 29 67 70 51 38 16 345 21
142 126 16 348 349 354 240 194 174 152 150 188 217 269 301 332 328 323 314 320 323 326 331 335 341 338 330 326 331 342 354 352 355 357 25 30 39 51 51 49 50 51 19 31
128 144 188 217 238 199 230 217 183 159 193 231 235 266 297 313 320 324 323 321 323 324 332 340 340 331 330 334 339 348 349 356 17 21 35 32 23 33 39 41 47 50 54 46
113 188 234 261 270 236 234 232 205 204 209 221 254 262 280 299 303 307 311 321 334 335 336 335 332 324 328 334 338 353 354 1 23 26 23 14 17 32 51 46 44 42 50 48
95 158 250 292 280 265 266 252 228 226 227 242 268 277 277 294 303 305 309 319 323 323 326 328 327 326 325 322 328 343 346 352 26 34 1 8 30 39 48 48 48 50 48 42
136 133 125 281 315 329 281 243 205 211 213 205 235 256 298 308 307 301 299 307 306 310 317 319 316 311 309 311 317 319 318 349 19 15 1 19 33 39 36 46 50 52 44 41
146 136 140 311 11 264 251 223 187 214 242 225 245 270 284 280 291 296 290 282 293 305 310 310 310 314 317 323 330 329 338 0 3 3 4 19 33 34 31 49 47 50 54 49
148 139 129 130 280 282 293 250 179 202 275 233 240 268 287 304 316 314 297 278 276 287 295 297 298 303 311 316 322 343 347 356 356 347 348 4 40 45 32 38 26 59 66 46
67 102 128 146 213 254 262 226 165 113 293 264 224 259 287 336 326 304 319 316 311 311 309 312 315 323 322 319 339 6 346 351 322 316 323 344 51 88 29 18 76 71 91 62
131 128 168 189 231 264 258 205 134 165 262 282 227 255 253 238 251 284 314 318 316 317 319 320 321 326 320 327 357 2 348 313 304 329 351 10 44 105 153 107 102 104 92 74
178 174 190 172 209 257 207 146 185 227 274 258 255 257 254 264 285 302 314 317 323 326 327 326 332 330 330 336 8 358 321 306 336 4 17 26 39 72 103 105 84 84 93 85
202 194 191 198 218 256 191 209 240 254 267 266 258 271 267 275 290 305 313 317 317 317 321 330 337 333 332 336 355 325 313 343 23 37 48 50 60 79 99 112 105 89 95 110
241 192 199 252 263 260 255 258 268 260 256 268 267 271 263 268 283 297 307 313 318 320 323 333 343 335 328 332 337 300 315 16 56 58 52 69 82 61 55 80 114 128 145 169
218 176 210 255 275 298 278 248 256 267 273 280 282 268 255 253 276 281 295 305 309 316 323 329 326 317 311 325 345 339 349 76 70 60 61 63 82 93 60 27 232 236 251 228
194 187 195 237 237 218 260 264 257 256 265 265 271 282 274 243 259 278 291 297 303 312 323 331 330 322 316 337 339 337 360 96 105 74 42 85 114 109 126 101 7 359 329 312
Height
1498 1502 1506 1506 1506 1505 1506 1507 1507 1503 1499 1498 1494 1490 1485 1482 1481 1480 1479 1478 1478 1477 1478 1478 1478 1477 1476 1476 1476 1476 1476 1476 1477 1477 1477 1478 1479 1480 1482 1483 1483 1485 1486 1487
1503 1507 1505 1504 1504 1505 1506 1507 1506 1502 1498 1497 1494 1488 1481 1479 1478 1477 1476 1475 1474 1474 1473 1473 1474 1473 1472 1472 1473 1473 1473 1472 1473 1474 1474 1475 1476 1477 1477 1479 1480 1481 1482 1483
1505 1506 1504 1504 1505 1505 1506 1507 1505 1504 1500 1497 1495 1485 1479 1475 1475 1474 1473 1472 1471 1471 1470 1470 1470 1470 1469 1469 1469 1469 1469 1469 1470 1471 1471 1471 1472 1472 1474 1474 1475 1476 1477 1479
1506 1505 1504 1504 1505 1505 1505 1502 1503 1502 1504 1503 1500 1493 1479 1476 1474 1472 1470 1469 1468 1468 1467 1467 1467 1466 1466 1466 1466 1465 1465 1466 1467 1468 1468 1467 1467 1468 1469 1470 1471 1472 1473 1474
1506 1505 1504 1504 1504 1504 1504 1501 1502 1502 1504 1505 1501 1501 1482 1477 1474 1470 1468 1466 1465 1465 1465 1464 1464 1464 1464 1464 1463 1462 1462 1462 1463 1464 1464 1465 1465 1465 1466 1467 1467 1468 1469 1470
1505 1504 1504 1504 1503 1503 1502 1502 1502 1504 1505 1505 1499 1500 1485 1478 1473 1468 1466 1464 1463 1463 1462 1462 1462 1461 1460 1460 1459 1459 1458 1458 1459 1460 1461 1462 1461 1462 1463 1463 1464 1464 1465 1466
1506 1504 1503 1503 1503 1503 1503 1507 1510 1508 1511 1503 1496 1495 1484 1472 1469 1467 1465 1463 1461 1460 1459 1458 1458 1457 1457 1456 1456 1456 1455 1455 1456 1457 1457 1458 1458 1459 1460 1460 1461 1461 1462 1463
1508 1507 1505 1503 1504 1506 1507 1508 1513 1512 1509 1502 1496 1492 1477 1469 1467 1465 1463 1461 1459 1458 1457 1456 1456 1455 1455 1454 1454 1453 1453 1453 1453 1454 1454 1455 1456 1457 1457 1458 1458 1459 1459 1460
1510 1507 1504 1503 1503 1504 1507 1511 1510 1515 1517 1512 1498 1488 1476 1468 1465 1463 1460 1458 1457 1456 1455 1454 1453 1453 1453 1452 1451 1451 1451 1451 1451 1451 1451 1452 1453 1453 1453 1454 1455 1456 1457 1457
1508 1510 1505 1503 1503 1505 1506 1509 1514 1516 1513 1506 1496 1489 1479 1469 1467 1464 1461 1458 1456 1455 1453 1451 1451 1450 1450 1450 1450 1450 1450 1450 1449 1449 1449 1450 1450 1450 1451 1452 1452 1454 1454 1454
1506 1510 1508 1506 1506 1506 1508 1510 1512 1516 1515 1512 1503 1486 1472 1469 1467 1465 1462 1459 1456 1454 1452 1449 1449 1449 1448 1448 1448 1448 1447 1448 1448 1448 1447 1447 1448 1448 1448 1450 1450 1451 1451 1451
1507 1511 1512 1508 1506 1506 1506 1507 1510 1511 1513 1516 1513 1491 1470 1469 1466 1464 1461 1458 1455 1453 1451 1448 1447 1447 1446 1446 1446 1446 1446 1446 1446 1445 1445 1445 1446 1446 1446 1447 1447 1448 1448 1449
1505 1510 1509 1503 1508 1508 1508 1507 1509 1512 1514 1516 1509 1487 1470 1468 1466 1463 1460 1457 1454 1452 1450 1448 1446 1445 1444 1444 1445 1445 1444 1444 1444 1444 1443 1443 1444 1444 1444 1445 1445 1446 1446 1446
1502 1508 1508 1502 1499 1504 1507 1507 1508 1509 1511 1509 1501 1484 1471 1468 1466 1463 1459 1457 1454 1452 1450 1447 1446 1445 1444 1443 1443 1443 1443 1443 1442 1442 1442 1442 1442 1442 1443 1443 1443 1444 1444 1444
1502 1507 1507 1505 1503 1503 1502 1502 1504 1505 1501 1500 1489 1485 1473 1469 1467 1464 1460 1457 1454 1452 1450 1448 1446 1445 1444 1443 1442 1442 1442 1441 1441 1441 1441 1441 1441 1441 1441 1441 1442 1442 1442 1443
1503 1506 1507 1504 1501 1502 1499 1495 1497 1497 1497 1494 1488 1481 1470 1469 1466 1463 1460 1457 1455 1452 1450 1448 1446 1445 1443 1443 1442 1441 1441 1441 1441 1441 1441 1440 1440 1439 1440 1440 1440 1441 1441 1442
1505 1506 1506 1504 1503 1498 1494 1487 1489 1489 1487 1487 1483 1475 1469 1468 1465 1462 1460 1457 1455 1453 1450 1448 1447 1445 1443 1442 1441 1440 1440 1440 1440 1439 1439 1439 1439 1438 1439 1439 1439 1440 1440 1441
1504 1506 1510 1509 1505 1497 1483 1482 1482 1483 1480 1479 1475 1471 1469 1467 1464 1461 1460 1457 1455 1452 1450 1448 1446 1444 1443 1441 1440 1440 1439 1439 1438 1437 1437 1437 1437 1437 1438 1438 1438 1439 1439 1440
1501 1505 1511 1512 1509 1498 1483 1480 1481 1482 1477 1472 1472 1469 1467 1465 1462 1459 1458 1456 1454 1452 1450 1448 1446 1444 1442 1441 1440 1438 1438 1437 1436 1436 1436 1436 1436 1436 1436 1437 1437 1438 1438 1439
1503 1504 1510 1512 1505 1493 1478 1478 1477 1480 1476 1467 1467 1467 1466 1465 1465 1460 1457 1455 1453 1451 1449 1446 1444 1442 1441 1439 1438 1437 1436 1435 1435 1435 1435 1435 1435 1435 1435 1436 1436 1437 1438 1438
1505 1507 1509 1509 1506 1490 1477 1476 1477 1481 1473 1466 1465 1465 1464 1464 1463 1459 1456 1453 1451 1449 1447 1445 1443 1441 1439 1438 1437 1435 1434 1434 1434 1434 1433 1434 1434 1434 1435 1435 1436 1436 1437 1438
1499 1503 1506 1506 1503 1487 1473 1474 1475 1470 1465 1464 1463 1462 1462 1460 1459 1457 1454 1452 1450 1447 1445 1444 1442 1440 1439 1437 1435 1434 1433 1433 1432 1432 1432 1432 1433 1433 1434 1435 1435 1436 1436 1437
1492 1489 1489 1488 1480 1471 1469 1467 1467 1466 1464 1463 1461 1460 1459 1458 1456 1455 1453 1451 1449 1446 1444 1442 1440 1439 1437 1436 1434 1432 1432 1432 1431 1430 1430 1431 1432 1433 1433 1434 1434 1435 1436 1437
1485 1484 1484 1482 1471 1467 1466 1465 1464 1463 1462 1461 1460 1458 1457 1456 1454 1452 1451 1449 1447 1445 1443 1441 1439 1437 1436 1434 1433 1432 1431 1431 1430 1429 1430 1430 1431 1432 1433 1433 1434 1434 1435 1436
1477 1480 1480 1476 1467 1464 1461 1460 1460 1460 1459 1458 1457 1456 1455 1454 1452 1451 1449 1447 1446 1444 1442 1441 1438 1436 1434 1433 1432 1432 1431 1430 1430 1429 1430 1430 1431 1432 1432 1433 1433 1434 1435 1436
1470 1471 1472 1466 1461 1461 1459 1458 1458 1457 1456 1455 1454 1453 1452 1452 1450 1449 1447 1446 1444 1443 1441 1439 1437 1435 1434 1433 1432 1432 1431 1430 1430 1429 1430 1430 1431 1431 1432 1432 1433 1434 1434 1435